Home   Weather   Tiruchirappalli   Past weeks

Flag for India Past Weather in Tiruchirappalli, Tamil Nadu, India — Yesterday and Last 2 Weeks

Now
70 °F

Fog.


Feels Like: 70 °F
Forecast: 65 / 89 °F
Wind: 7 mph from Northeast

Location: Tiruchchirapalli

Current Time: Jan 18, 2017 at 3:09:53 am

Latest Report: Jan 18, 2017 at 2:30 am


Visibility: 2 mi

Pressure: 29.92 "Hg

Humidity: 78%

Dew Point: 63 °F

Location of TiruchirappalliLocation

Past Weather in Tiruchirappalli — Graph

°F

Tiruchirappalli Temperature Yesterday

Maximum temperature yesterday: 88 °F (at 1:30 pm)
Minimum temperature yesterday: 70 °F (at 4:00 am)
Average temperature yesterday: 78 °F

High & Low Weather Summary for the Past Weeks

 TemperatureHumidityPressure
High93 °F (Jan 3, 3:00 pm)94% (Jan 4, 5:00 am)30.01 "Hg (Jan 4, 5:00 am)
Low68 °F (Jan 8, 5:30 am)31% (Jan 11, 3:30 pm)29.74 "Hg (Jan 7, 5:00 pm)
Average79 °F65%29.88 "Hg
* Reported Jan 3 1:30 am — Jan 18 2:00 am, Tiruchirappalli, Weather by CustomWeather, © 2017

Note: Actual official high and low records may vary slightly from our data, if they occured in-between our weather recording intervals... More about our weather records

Advertising

Tiruchirappalli Weather History for the Previous 24 Hours

Scroll right to see more
 ConditionsComfort  
Time TempWeatherWind HumidityBarometerVisibility
2:00 am
Wed, Jan 18
70 °FFog.7 mph78%29.95 "Hg2 mi
1:30 am72 °FFog.7 mph73%29.95 "Hg2 mi
1:00 am72 °FHaze.3 mph69%29.95 "Hg2 mi
12:30 am72 °FHaze.7 mph73%29.95 "Hg2 mi
12:00 am72 °FHaze.9 mph73%29.98 "Hg2 mi
11:30 pm
Tue, Jan 17
72 °FHaze.12 mph73%29.98 "Hg2 mi
11:00 pm73 °FHaze.12 mph65%29.98 "Hg2 mi
10:30 pm75 °FHaze.12 mph61%29.95 "Hg2 mi
10:00 pm75 °FHaze.12 mph61%29.95 "Hg2 mi
9:30 pm75 °FHaze.9 mph61%29.95 "Hg2 mi
9:00 pm75 °FHaze.10 mph61%29.95 "Hg2 mi
8:30 pm77 °FHaze.12 mph54%29.95 "Hg2 mi
8:00 pm79 °FHaze.12 mph48%29.92 "Hg2 mi
7:30 pm81 °FHaze.12 mph45%29.92 "Hg3 mi
7:00 pm84 °FPassing clouds.12 mph43%29.89 "Hg3 mi
6:00 pm84 °FPassing clouds.12 mph37%29.89 "Hg4 mi
5:30 pm84 °FPassing clouds.12 mph37%29.86 "Hg4 mi
5:00 pm86 °FPassing clouds.12 mph35%29.86 "Hg4 mi
4:30 pm86 °FPassing clouds.9 mph35%29.86 "Hg4 mi
4:00 pm88 °FPassing clouds.9 mph33%29.86 "Hg4 mi
3:30 pm88 °FPassing clouds.9 mph33%29.86 "Hg4 mi
3:00 pm88 °FPassing clouds.9 mph33%29.86 "Hg4 mi
2:30 pm88 °FPassing clouds.9 mph33%29.86 "Hg4 mi
2:00 pm88 °FPassing clouds.12 mph33%29.89 "Hg4 mi
1:30 pm88 °FHaze.10 mph33%29.89 "Hg3 mi
1:00 pm86 °FHaze.12 mph35%29.92 "Hg3 mi
12:30 pm86 °FHaze.12 mph35%29.95 "Hg3 mi
12:00 pm86 °FHaze.10 mph38%29.95 "Hg3 mi
11:30 am84 °FHaze.10 mph43%29.98 "Hg2 mi
11:00 am82 °FHaze.9 mph48%30.01 "Hg2 mi
10:30 am81 °FHaze.9 mph54%30.01 "Hg2 mi
10:00 am79 °FHaze.9 mph58%30.01 "Hg2 mi
9:30 am77 °FHaze.9 mph61%30.01 "Hg2 mi
9:00 am75 °FHaze.9 mph65%30.01 "Hg1 mi
8:30 am73 °FHaze.No wind69%30.01 "Hg1 mi
8:00 am73 °FFog.No wind74%29.98 "Hg1 mi
7:30 am73 °FFog.No wind74%29.98 "Hg1 mi
7:00 am72 °FFog.No wind78%29.95 "Hg1 mi
6:30 am70 °FFog.No wind83%29.95 "Hg1 mi
6:00 am70 °FFog.No wind83%29.92 "Hg1 mi
5:30 am70 °FFog.No wind83%29.92 "Hg2 mi
5:00 am70 °FFog.5 mph83%29.89 "Hg2 mi
4:30 am70 °FFog.5 mph83%29.89 "Hg2 mi
4:00 am70 °FFog.5 mph83%29.89 "Hg2 mi
3:30 am72 °FFog.5 mph78%29.89 "Hg2 mi
3:00 am72 °FFog.5 mph78%29.89 "Hg2 mi
Weather by CustomWeather, © 2017

See weather overviewHow to use our weather pages